This is the latest recevied weather packets stored in our database for station/object DL4NBA-1. If no packets are shown the sender has not sent any weather packets the latest 10 day(s).
| Time | Temp. | Humidity | Pressure | Rain* | Wind** | Luminosity | Snow |
|---|---|---|---|---|---|---|---|
| 1777972360 | 22.78° C | - | - | 0 mm | 1.79 m/s, 326° | - | - |
| 1777972061 | 22.22° C | - | - | 0 mm | 1.34 m/s, 62° | - | - |
| 1777971463 | 23.33° C | - | - | 0 mm | 1.34 m/s, 349° | - | - |
| 1777970863 | 21.67° C | - | - | 0 mm | 3.13 m/s, 3° | - | - |
| 1777970564 | 21.67° C | - | - | 0 mm | 1.79 m/s, 7° | - | - |
| 1777970265 | 22.22° C | - | - | 0 mm | 1.79 m/s, 69° | - | - |
| 1777969967 | 21.11° C | - | - | 0 mm | 2.68 m/s, 53° | - | - |
| 1777969664 | 20.56° C | - | - | 0 mm | 0.45 m/s, 10° | - | - |
| 1777969365 | 20° C | - | - | 0 mm | 2.68 m/s, 14° | - | - |
| 1777969067 | 20.56° C | - | - | 0 mm | 3.58 m/s, 329° | - | - |
| 1777968768 | 20.56° C | - | - | 0 mm | 0.45 m/s, 266° | - | - |
| 1777968468 | 21.11° C | - | - | 0 mm | 0 m/s | - | - |
| 1777968167 | 20.56° C | - | - | 0 mm | 1.79 m/s, 20° | - | - |
| 1777967868 | 20.56° C | - | - | 0 mm | 1.79 m/s, 46° | - | - |
| 1777967570 | 21.11° C | - | - | 0 mm | 0.89 m/s, 21° | - | - |
| 1777966972 | 20° C | - | - | 0 mm | 2.68 m/s, 51° | - | - |
| 1777966671 | 20° C | - | - | 0 mm | 0.89 m/s, 6° | - | - |
| 1777966372 | 20° C | - | - | 0 mm | 0.89 m/s, 6° | - | - |
| 1777966073 | 19.44° C | - | - | 0 mm | 0.45 m/s, 49° | - | - |
| 1777965775 | 18.89° C | - | - | 0 mm | 1.79 m/s, 332° | - | - |
| 1777965476 | 18.89° C | - | - | 0 mm | 0.45 m/s, 11° | - | - |
| 1777964876 | 18.89° C | - | - | 0 mm | 1.79 m/s, 297° | - | - |
| 1777964279 | 18.33° C | - | - | 0 mm | 0 m/s | - | - |
| 1777963980 | 17.22° C | - | - | 0 mm | 0 m/s | - | - |
| 1777963678 | 17.22° C | - | - | 0 mm | 0.89 m/s, 307° | - | - |
* Rain latest hour (hover to see other rain measurements)
** Current wind speed in m/s (hover to see current wind gust speed)